Back to catalog

CZ-6A DEB

AliveSSO
NORAD 55511·DEBRIS·🇨🇳 China

Launched Nov 11, 2022 from Taiyuan Satellite Launch Center

Loading…

Next Passes (next 24 hours)

TLE

FreshSource: Space-Track

Epoch: Sep 13, 2026, 12:33 UTC

1 55511U 22151XH  26256.52341719  .00001346  00000-0  66814-3 0  9993
2 55511  98.8307 265.5322 0040744  62.8000 297.7319 14.18401350192843

Track CZ-6A DEB in real time with AllMySat

Download on the App Store